(54930) = 2001 OM102

Discovered at Haleakala on 2001-07-28 by NEAT.

Orbit

Orbit type: Main Belt

Note: WebGL enabled browser required.

epoch2024-03-31.0
epoch JD2460400.5
perihelion date2022-02-03.95082
perihelion JD2459614.45082
argument of perihelion (°)220.03867
ascending node (°)157.23885
inclination (°)12.14180
eccentricity0.1374226
perihelion distance (AU)2.5149791
Tisserand w.r.t. Jupiter3.2
ΔV w.r.t. Earth (km/sec)10.6
semimajor axis (AU)2.9156563
mean anomaly (°)155.61415
mean daily motion (°/day)0.19797000
aphelion distance (AU)3.316
period (years)4.98
P-vector [x]0.94930978
P-vector [y]0.31413959
P-vector [z]-0.01128072
Q-vector [x]-0.30362639
Q-vector [y]0.92564810
Q-vector [z]0.22580214
absolute magnitude14.6
phase slope0.15
uncertainty0
referenceMPEC 2024-F50
observations used1420
oppositions22
arc length (days)11881
first opposition used1991
last opposition used2024
residual rms (arc-secs)0.70
perturbers coarse indicatorM-v
perturbers precise indicator003Ek
first observation date used1991-09-08.0
last observation date used2024-03-19.0
computer nameMPCLINUX
JD of orbit computation2456937.253928
perihelion JD uncertainty (days)9.2837E-05
argument of perihelion uncertainty (°)2.4379E-05
ascending node uncertainty (°)1.7669E-05
inclination uncertainty (°)5.2720E-06
eccentricity uncertainty 4.2159E-08
perihelion distance uncertainty (AU)1.1890E-07
Minimum Orbit Intersection Distances (in AU)
for orbit epoch: 2460400.5, reference: E2024-GH2
Mercury2.16631
Venus1.79256
Earth1.52779
Mars1.12604
Jupiter2.1661
Saturn6.12059
Uranus15.1761
Neptune27.2528

Observations

1446 total observations over interval: 1991 09 08.13554 – 2024 03 19.414876
These data are available for download (format description).

Date (UT) J2000 RA J2000 Dec Magn Location Ref
1991 09 08.13554 21 19 05.37 -12 19 37.4   691 – Steward Observatory, Kitt Peak-Spacewatch MPS 34511
1991 09 08.15707 21 19 04.63 -12 19 48.2   691 – Steward Observatory, Kitt Peak-Spacewatch MPS 34511
1991 09 08.17844 21 19 03.96 -12 19 58.9 19.1 V 691 – Steward Observatory, Kitt Peak-Spacewatch MPS 34511
1995 07 24.17516 15 18 30.37 -03 36 42.3   691 – Steward Observatory, Kitt Peak-Spacewatch MPS 34511
1995 07 24.19616 15 18 30.63 -03 36 48.4 20.8 V 691 – Steward Observatory, Kitt Peak-Spacewatch MPS 34511
1995 07 24.21723 15 18 30.95 -03 36 55.0   691 – Steward Observatory, Kitt Peak-Spacewatch MPS 34511
2000 05 28.23990 15 42 53.69 -01 57 46.0 18.6   704 – Lincoln Laboratory ETS, New Mexico MPS 34511
2000 05 28.28415 15 42 51.49 -01 57 40.7 19.2   704 – Lincoln Laboratory ETS, New Mexico MPS 34511
2000 05 28.29863 15 42 50.78 -01 57 40.0 19.3   704 – Lincoln Laboratory ETS, New Mexico MPS 34511
2000 06 04.25696 15 37 41.94 -01 47 45.8 18.5 R 699 – Lowell Observatory-LONEOS MPS 34511
2000 06 04.26964 15 37 41.33 -01 47 44.4   699 – Lowell Observatory-LONEOS MPS 34511
2000 06 04.28231 15 37 40.88 -01 47 42.3   699 – Lowell Observatory-LONEOS MPS 34511
2000 06 04.29497 15 37 40.31 -01 47 41.1   699 – Lowell Observatory-LONEOS MPS 34511
2001 07 20.38427 22 09 13.05 -05 23 46.9 18.9   704 – Lincoln Laboratory ETS, New Mexico MPS 33414
2001 07 20.39423 22 09 12.84 -05 23 50.5 19.2   704 – Lincoln Laboratory ETS, New Mexico MPS 33414
2001 07 20.40424 22 09 12.51 -05 23 52.6 18.9   704 – Lincoln Laboratory ETS, New Mexico MPS 33414
2001 07 28.41930 22 05 50.53 -06 08 54.0 19.9   608 – Haleakala-AMOS MPS 32914
2001 07 28.42952 22 05 50.19 -06 08 58.3 20.4   608 – Haleakala-AMOS MPS 32914
2001 07 28.44024 22 05 49.89 -06 09 03.1 19.9   608 – Haleakala-AMOS MPS 32914
2001 07 29.35491 22 05 22.23 -06 14 56.2 18.5   704 – Lincoln Laboratory ETS, New Mexico MPS 32914
2001 07 29.36565 22 05 21.78 -06 14 59.3 18.5   704 – Lincoln Laboratory ETS, New Mexico MPS 32914
2001 07 29.37637 22 05 21.45 -06 15 03.9 19.0   704 – Lincoln Laboratory ETS, New Mexico MPS 32914
2001 07 29.38710 22 05 21.05 -06 15 08.0 19.1   704 – Lincoln Laboratory ETS, New Mexico MPS 32914
2001 08 10.56649 21 58 00.03 -07 45 30.0 19.4   608 – Haleakala-AMOS MPS 32914
2001 08 10.57685 21 57 59.56 -07 45 35.4 19.4   608 – Haleakala-AMOS MPS 32914
2001 08 10.58737 21 57 59.11 -07 45 40.5 19.9   608 – Haleakala-AMOS MPS 32914
2001 08 15.33017 21 54 41.27 -08 25 43.6 18.8   608 – Haleakala-AMOS MPS 32914
2001 08 15.34062 21 54 40.79 -08 25 48.9 18.5   608 – Haleakala-AMOS MPS 32914
2001 08 15.35128 21 54 40.32 -08 25 55.3 19.1   608 – Haleakala-AMOS MPS 32914
2001 08 15.54110 21 54 31.81 -08 27 33.2 18.8   608 – Haleakala-AMOS MPS 32914
2001 08 15.55132 21 54 31.37 -08 27 38.1 18.6   608 – Haleakala-AMOS MPS 32914
2001 08 15.56160 21 54 30.93 -08 27 43.3 18.6   608 – Haleakala-AMOS MPS 32914
2001 08 16.27245 21 54 00.76 -08 33 54.8 17.7   704 – Lincoln Laboratory ETS, New Mexico MPS 32914
2001 08 16.28474 21 54 00.22 -08 34 01.9 18.2   704 – Lincoln Laboratory ETS, New Mexico MPS 32914
2001 08 16.29710 21 53 59.64 -08 34 08.2 17.9   704 – Lincoln Laboratory ETS, New Mexico MPS 32914
2001 08 16.30935 21 53 59.11 -08 34 14.6 17.8   704 – Lincoln Laboratory ETS, New Mexico MPS 32914
2001 08 16.32158 21 53 58.55 -08 34 21.1 18.0   704 – Lincoln Laboratory ETS, New Mexico MPS 32914
2001 08 18.27150 21 52 34.44 -08 51 28.3 16.9   704 – Lincoln Laboratory ETS, New Mexico MPS 33414
2001 08 18.28397 21 52 33.74 -08 51 34.0 17.6   704 – Lincoln Laboratory ETS, New Mexico MPS 33414
2001 08 18.29638 21 52 33.24 -08 51 40.6 17.6   704 – Lincoln Laboratory ETS, New Mexico MPS 33414
2001 08 18.30883 21 52 32.65 -08 51 47.8 17.5   704 – Lincoln Laboratory ETS, New Mexico MPS 33414
2001 08 18.32137 21 52 32.12 -08 51 54.3 17.6   704 – Lincoln Laboratory ETS, New Mexico MPS 33414
2001 08 20.27609 21 51 07.20 -09 09 16.4 18.0   704 – Lincoln Laboratory ETS, New Mexico MPS 33414
2001 08 20.28898 21 51 06.62 -09 09 23.8 18.3   704 – Lincoln Laboratory ETS, New Mexico MPS 33414
2001 08 20.30206 21 51 06.09 -09 09 31.2 18.3   704 – Lincoln Laboratory ETS, New Mexico MPS 33414
2001 08 24.19217 21 48 17.57 -09 44 25.6 17.1 R 699 – Lowell Observatory-LONEOS MPS 33414
2001 08 24.21798 21 48 16.42 -09 44 39.6   699 – Lowell Observatory-LONEOS MPS 33414
2001 08 24.24396 21 48 15.30 -09 44 53.5   699 – Lowell Observatory-LONEOS MPS 33414
2001 08 24.26966 21 48 14.16 -09 45 07.4   699 – Lowell Observatory-LONEOS MPS 33414
2001 09 07.19041 21 39 02.44 -11 47 31.0 18.4   704 – Lincoln Laboratory ETS, New Mexico MPS 34511
2001 09 07.20424 21 39 01.92 -11 47 37.8 18.5   704 – Lincoln Laboratory ETS, New Mexico MPS 34511
2001 09 07.21807 21 39 01.45 -11 47 45.5 18.7   704 – Lincoln Laboratory ETS, New Mexico MPS 34511
2001 09 07.23191 21 39 00.93 -11 47 51.7 18.8   704 – Lincoln Laboratory ETS, New Mexico MPS 34511
2001 09 07.24578 21 39 00.41 -11 47 58.8 18.5   704 – Lincoln Laboratory ETS, New Mexico MPS 34511
2001 09 12.19513 21 36 22.14 -12 28 04.3 18.1   704 – Lincoln Laboratory ETS, New Mexico MPS 34511
2001 09 12.22384 21 36 21.25 -12 28 17.7 18.0   704 – Lincoln Laboratory ETS, New Mexico MPS 34511
2001 09 12.25196 21 36 20.34 -12 28 30.8 18.5   704 – Lincoln Laboratory ETS, New Mexico MPS 34511
2001 09 17.19563 21 34 11.03 -13 05 36.6 18.6 R 699 – Lowell Observatory-LONEOS MPS 35873
2001 09 17.21120 21 34 10.61 -13 05 43.6   699 – Lowell Observatory-LONEOS MPS 35873
2001 09 17.22678 21 34 10.05 -13 05 49.6   699 – Lowell Observatory-LONEOS MPS 35873
2001 09 17.24239 21 34 09.77 -13 05 56.2   699 – Lowell Observatory-LONEOS MPS 35873
2001 09 21.11502 21 32 51.24 -13 32 35.7 18.3   704 – Lincoln Laboratory ETS, New Mexico MPS 35873
2001 09 21.14501 21 32 50.67 -13 32 47.8 19.1   704 – Lincoln Laboratory ETS, New Mexico MPS 35873
2001 09 21.15931 21 32 50.45 -13 32 53.8 19.1   704 – Lincoln Laboratory ETS, New Mexico MPS 35873
2001 09 21.17357 21 32 50.04 -13 32 59.9 18.9   704 – Lincoln Laboratory ETS, New Mexico MPS 35873
2002 11 30.29581 06 13 07.23 +05 53 46.9 18.7   704 – Lincoln Laboratory ETS, New Mexico MPS 67819
2002 11 30.32567 06 13 05.95 +05 53 44.3 18.9   704 – Lincoln Laboratory ETS, New Mexico MPS 67819
2002 11 30.34064 06 13 05.32 +05 53 43.4 18.7   704 – Lincoln Laboratory ETS, New Mexico MPS 67819
2002 11 30.35558 06 13 04.67 +05 53 41.9 18.9   704 – Lincoln Laboratory ETS, New Mexico MPS 67819
2002 12 14.30331 06 01 56.20 +05 47 27.8 18.6   704 – Lincoln Laboratory ETS, New Mexico MPS 67819
2002 12 14.31869 06 01 55.31 +05 47 28.9 19.2   704 – Lincoln Laboratory ETS, New Mexico MPS 67819
2002 12 14.33407 06 01 54.59 +05 47 29.1 19.7   704 – Lincoln Laboratory ETS, New Mexico MPS 67819
2002 12 14.34960 06 01 53.69 +05 47 30.5 18.9   704 – Lincoln Laboratory ETS, New Mexico MPS 67819
2002 12 14.36499 06 01 52.85 +05 47 30.6 18.9   704 – Lincoln Laboratory ETS, New Mexico MPS 67819
2002 12 15.29039 06 01 04.47 +05 48 11.6 18.9   704 – Lincoln Laboratory ETS, New Mexico MPS 67819
2002 12 15.30571 06 01 03.58 +05 48 12.3 19.2   704 – Lincoln Laboratory ETS, New Mexico MPS 67819
2002 12 15.32094 06 01 02.79 +05 48 13.8 19.2   704 – Lincoln Laboratory ETS, New Mexico MPS 67819
2002 12 15.33618 06 01 01.86 +05 48 16.1 19.8   704 – Lincoln Laboratory ETS, New Mexico MPS 67819
2002 12 15.35144 06 01 01.15 +05 48 14.5 18.8   704 – Lincoln Laboratory ETS, New Mexico MPS 67819
2003 01 02.22585 05 45 31.65 +06 28 39.7 18.6   704 – Lincoln Laboratory ETS, New Mexico MPS 69747
2003 01 02.24124 05 45 30.94 +06 28 42.8 19.1   704 – Lincoln Laboratory ETS, New Mexico MPS 69747
2003 01 02.27137 05 45 29.41 +06 28 51.0 19.4   704 – Lincoln Laboratory ETS, New Mexico MPS 69747
2003 01 02.28661 05 45 28.66 +06 28 53.0 19.3   704 – Lincoln Laboratory ETS, New Mexico MPS 69747
2003 01 03.21071 05 44 44.77 +06 32 17.0 18.7   704 – Lincoln Laboratory ETS, New Mexico MPS 69747
2003 01 03.22553 05 44 44.01 +06 32 19.8 18.8   704 – Lincoln Laboratory ETS, New Mexico MPS 69747
2003 01 03.24006 05 44 43.28 +06 32 23.4 19.1   704 – Lincoln Laboratory ETS, New Mexico MPS 69747
